Regional Weather Roundup
Issued by NWS Albany, NY

Home | Current Version | Previous Version | Text Only | Print | Product List | Glossary On
Versions: 1 2 3 4 5 6 7 8 9 10 11 12 13 14 15 16 17 18 19 20 21 22 23 24 25 26 27 28 29 30 31 32 33 34 35 36 37 38 39 40 41 42 43 44 45 46 47 48 49 50
000
ASUS41 KALY 200210
RWRALY

NEW YORK STATE HOURLY WEATHER ROUNDUP
NATIONAL WEATHER SERVICE ALBANY NY
1000 PM EDT TUE SEP 19 2017

NOTE: "FAIR" INDICATES FEW OR NO CLOUDS BELOW 12,000 FEET WITH NO
SIGNIFICANT WEATHER AND/OR NO OBSTRUCTIONS TO VISIBILITY.

NYZ032-033-038>043-046>054-057>066-NYZ062>081-082-084-200300-
EAST


CITY           SKY/WX    TMP DP  RH WIND       PRES   REMARKS
ALBANY         MOCLDY    68  60  75 N3        30.01S
GLENS FALLS    CLEAR     64  60  87 N7        30.03R
POUGHKEEPSIE   CLOUDY    71  63  75 N5        29.94S
NEWBURGH       MOCLDY    73  64  73 NE14      29.96F
MONTGOMERY     CLOUDY    72  62  71 NE14      29.95S
WHITE PLAINS   CLOUDY    69  64  84 N15G22    29.89F
ISLIP          LGT RAIN  69  67  93 N20G26    29.84F FOG
NEW YORK CITY  CLOUDY    72  66  81 N15G24    29.87F
CENTRAL PARK   CLOUDY    71  65  81 NE10      29.91F
$$

NYZ005>009-017-018-044>046-055-056-200300-
CENTRAL


CITY           SKY/WX    TMP DP  RH WIND       PRES   REMARKS
FULTON         CLEAR     67  62  84 E3        30.01S
SYRACUSE       PTCLDY    65  62  90 NE6       29.99F
ROME           PTCLDY    65  61  87 CALM      30.02S
ELMIRA         CLEAR     62  61  96 CALM      30.00S
BINGHAMTON     CLEAR     64  57  78 NE7       30.03R
MONTICELLO     CLOUDY    66  60  81 N5        30.02R
$$

NYZ026>034-041>043-087-200300-
NORTH


CITY           SKY/WX    TMP DP  RH WIND       PRES   REMARKS
WATERTOWN      CLOUDY    63  63 100 CALM      30.01R FOG
FORT DRUM      NOT AVBL
OGDENSBURG     FAIR      65  63  93 CALM      30.02R
MASSENA        CLEAR     69  66  90 NE3       30.03S
SARANAC LAKE   CLEAR     55  55 100 CALM      30.07S
PLATTSBURGH    CLEAR     63  61  93 CALM      30.03S
$$

NYZ001>004-010>016-019>021-085-200300-
WEST


CITY           SKY/WX    TMP DP  RH WIND       PRES   REMARKS
NIAGARA FALLS  CLEAR     70  63  78 E5        29.99S
BUFFALO        CLOUDY    68  66  93 E7        29.99F
DUNKIRK        CLEAR     63  62  97 SE3       29.99S
JAMESTOWN      CLEAR     68  63  84 NE6       30.03F
WELLSVILLE     CLEAR     64  59  83 E5        30.07S
ROCHESTER      CLEAR     70  63  78 E3        30.00F
PENN YAN       CLEAR     61  57  87 CALM      30.02S
$$

             KEY
       WCI = WIND CHILL INDEX
       VSB = VISIBILITY
       HX  = HEAT INDEX
$$



USA.gov is the U.S. government's official web portal to all federal, state and local government web resources and services.